This is the latest recevied weather packets stored in our database for station/object KQ4DLB-13. If no packets are shown the sender has not sent any weather packets the latest 1 day(s).
| Time | Temp. | Humidity | Pressure | Rain* | Wind** | Luminosity | Snow |
|---|---|---|---|---|---|---|---|
| 1778006402 | 21.11° C | 60% | 985.5 hPa | 0 mm | 4.47 m/s, 263° | 782 W/m² | - |
| 1778006102 | 21.11° C | 61% | 985.7 hPa | 0 mm | 2.68 m/s, 337° | 888 W/m² | - |
| 1778005802 | 20.56° C | 62% | 985.7 hPa | 0 mm | 3.58 m/s, 314° | 836 W/m² | - |
| 1778005502 | 20.56° C | 63% | 985.7 hPa | 0 mm | 3.13 m/s, 343° | 401 W/m² | - |
| 1778005202 | 20.56° C | 63% | 985.5 hPa | 0 mm | 4.02 m/s, 159° | 330 W/m² | - |
| 1778004902 | 20.56° C | 62% | 985.4 hPa | 0 mm | 3.13 m/s, 335° | 258 W/m² | - |
| 1778004602 | 20.56° C | 62% | 985.7 hPa | 0 mm | 3.58 m/s, 335° | 538 W/m² | - |
| 1778004302 | 20.56° C | 62% | 985.8 hPa | 0 mm | 3.58 m/s, 4° | 925 W/m² | - |
| 1778004002 | 20.56° C | 62% | 985.6 hPa | 0 mm | 4.02 m/s, 319° | 609 W/m² | - |
| 1778003702 | 20° C | 63% | 985.4 hPa | 0 mm | 3.13 m/s, 305° | 490 W/m² | - |
| 1778003402 | 20° C | 64% | 985.4 hPa | 0 mm | 2.68 m/s, 353° | 543 W/m² | - |
| 1778003102 | 20° C | 64% | 985.3 hPa | 0 mm | 3.58 m/s, 347° | 365 W/m² | - |
| 1778002802 | 20° C | 64% | 985.5 hPa | 0 mm | 3.58 m/s, 355° | 279 W/m² | - |
| 1778002502 | 20° C | 65% | 985.6 hPa | 0 mm | 3.13 m/s, 43° | 354 W/m² | - |
| 1778002202 | 19.44° C | 65% | 985.5 hPa | 0 mm | 4.02 m/s, 359° | 332 W/m² | - |
| 1778001902 | 19.44° C | 67% | 985.6 hPa | 0 mm | 3.13 m/s, 330° | 369 W/m² | - |
| 1778001602 | 19.44° C | 67% | 985.6 hPa | 0 mm | 4.02 m/s, 5° | 416 W/m² | - |
| 1778001302 | 18.89° C | 69% | 985.8 hPa | 0 mm | 2.24 m/s, 305° | 345 W/m² | - |
| 1778001002 | 18.89° C | 70% | 985.9 hPa | 0 mm | 2.24 m/s, 42° | 332 W/m² | - |
| 1778000702 | 18.33° C | 73% | 985.8 hPa | 0 mm | 1.79 m/s, 325° | 401 W/m² | - |
| 1778000401 | 17.78° C | 74% | 985.5 hPa | 0 mm | 2.68 m/s, 23° | 422 W/m² | - |
| 1778000102 | 17.78° C | 77% | 985.3 hPa | 0 mm | 2.24 m/s, 339° | 332 W/m² | - |
| 1777999802 | 17.78° C | 76% | 985.5 hPa | 0 mm | 2.68 m/s, 325° | 171 W/m² | - |
| 1777999502 | 17.78° C | 75% | 985.9 hPa | 0 mm | 2.24 m/s, 321° | 112 W/m² | - |
| 1777999202 | 17.78° C | 75% | 986.2 hPa | 0 mm | 2.24 m/s, 335° | 116 W/m² | - |
* Rain latest hour (hover to see other rain measurements)
** Current wind speed in m/s (hover to see current wind gust speed)